[[{"header":{"parameterUnit":"m.s-1","parameterCategory":2,"la1":30.2991,"la2":30.254,"lo1":-89.0895,"lo2":-89.0444,"dy":0.0017,"dx":0.0017,"nx":28,"ny":28,"refTime":"2023-10-14T21:00:00:Z","depth":"0","parameterNumber":2,"parameterNumberName":"U-component_of_CURRENTS"},"data":[0,0,0,0,0,0,0,0,0,0,0,0,0,0,0,0,0,0,0,0,0,0,0,0,0,0,0,0,0,0,0,0,0,0,0,0,0,0,0,0,0,0,0,0,0,0,0,0,0,0,0,0,0,0,0,0,0,0,0.259,0.2591,0,0.2603,0.2603,0.2603,0.2567,0.2567,0.2566,0.2566,0.2508,0.2507,0.2506,0,0,0,0,0,0,0,0,0,0,0,0,0,0.2524,0.2525,0.259,0.2591,0.2592,0.2603,0.2603,0.2603,0.2567,0.2567,0.2566,0.2566,0.2508,0.2507,0.2506,0,0,0,0,0,0,0,0,0,0,0,0,0,0.2541,0.2525,0.259,0.258,0.258,0.2604,0.2603,0.2602,0.2568,0.2567,0.2566,0.2565,0.2509,0.2507,0.2505,0.251,0,0,0.25,0.25,0,0,0,0,0,0,0,0,0.254,0.2542,0.2581,0.2581,0.2581,0.2589,0.2559,0.257,0.2568,0.2566,0.2566,0.2565,0.2533,0.2529,0.2525,0.2508,0.2505,0.25,0.2499,0.2499,0.2498,0,0,0,0,0,0,0,0.2539,0.2541,0.2589,0.2582,0.2582,0.2572,0.2573,0.2561,0.2547,0.2566,0.2565,0.2577,0.2531,0.2527,0.2524,0.2504,0.25,0.2499,0.2498,0.2497,0.2573,0.2576,0,0,0,0,0,0,0.2552,0.2541,0.2589,0.259,0.2565,0.2575,0.2575,0.2582,0.2549,0.2545,0.2578,0.2575,0.253,0.2526,0.2521,0.2577,0.2499,0.2497,0.2496,0.257,0.2574,0.2577,0,0,0,0,0,0,0.255,0.2556,0.2588,0.2571,0.2575,0.2577,0.2584,0.2583,0.2591,0.256,0.2553,0.259,0.2529,0.2524,0.252,0.2573,0.2496,0.2495,0.2566,0.2571,0.2575,0.2656,0,0,0,0,0,0,0.2548,0.2555,0.2561,0.2572,0.2577,0.2619,0.2586,0.2584,0.2602,0.2599,0.2569,0.2562,0.2528,0.2523,0.2519,0.2569,0.2494,0.2563,0.2569,0.2574,0.265,0.2663,0.2674,0,0,0,0,0,0.2545,0.2556,0.2561,0.2567,0.2586,0.2621,0.2622,0.2616,0.2604,0.2618,0.2591,0.2563,0.2557,0.2523,0.2517,0.2569,0.256,0.2567,0.2573,0.2644,0.266,0.2674,0,0,0,0,0,0,0.2524,0.2555,0.256,0.2577,0.2608,0.2618,0.2629,0.2632,0.2623,0.2613,0.2577,0.2569,0.2599,0.2575,0.2539,0.2614,0.2565,0.257,0.2621,0.2635,0.2647,0.2656,0.2492,0,0,0,0,0,0.2528,0.2545,0.2578,0.2595,0.2613,0.2626,0.2639,0.2641,0.264,0.2636,0.262,0.2611,0.2624,0.2618,0.262,0.2639,0.2624,0.2681,0.2693,0.2703,0.2711,0.2736,0.275,0.2599,0.2599,0.2599,0,0,0.2523,0.2545,0.2552,0.2593,0.261,0.2643,0.263,0.2659,0.2681,0.2631,0.2646,0.2651,0.2642,0.2673,0.2686,0.2653,0.274,0.2711,0.272,0.2723,0.2744,0.2759,0.2771,0.2603,0.2603,0.2602,0,0,0.2528,0.2547,0.2565,0.2599,0.2643,0.2659,0.2677,0.2704,0.2709,0.2729,0.2718,0.2754,0.2744,0.2765,0.2769,0.2854,0.281,0.2865,0.2919,0.2943,0.2955,0.2965,0.2961,0.297,0.2862,0.2862,0.2862,0,0.2517,0.2543,0.2578,0.2613,0.2638,0.2674,0.2702,0.2726,0.2747,0.2761,0.2743,0.2802,0.2795,0.2859,0.2891,0.2882,0.287,0.2855,0.2956,0.2966,0.2975,0.2968,0.2977,0.2867,0.2866,0.2866,0.2865,0,0.2538,0.2564,0.2583,0.2637,0.2677,0.2705,0.2757,0.279,0.2804,0.2828,0.2896,0.2906,0.294,0.2967,0.2943,0.303,0.2992,0.2972,0.291,0.2995,0.2982,0.299,0.2873,0.2872,0.287,0.2869,0,0,0.2462,0.2573,0.257,0.2595,0.2684,0.2706,0.2776,0.2835,0.2861,0.2921,0.2961,0.3037,0.3061,0.3072,0.3084,0.3112,0.3168,0.3068,0.3067,0.3048,0.3197,0.3077,0.3073,0.3153,0.3156,0.3157,0.316,0,0.2449,0.2506,0.2576,0.262,0.2644,0.2724,0.2777,0.2845,0.2892,0.2941,0.3019,0.3054,0.3097,0.3103,0.3163,0.3161,0.3193,0.3168,0.3132,0.3131,0.3001,0.308,0.2996,0.2983,0.3167,0.3169,0.3169,0,0.2405,0.2456,0.25,0.259,0.2608,0.2647,0.2725,0.2783,0.2894,0.2932,0.3038,0.3077,0.3179,0.3166,0.3266,0.3241,0.3236,0.3234,0.3233,0.3097,0.3026,0.2932,0.299,0.3001,0.3181,0.318,0.3179,0,0.2276,0.2376,0.2402,0.2435,0.2561,0.2588,0.2651,0.2763,0.2803,0.2919,0.2941,0.3096,0.312,0.3199,0.3239,0.324,0.3298,0.329,0.3188,0.3178,0.3088,0.3066,0.3138,0.3345,0.3345,0.3345,0.3345,0,0.2202,0.2211,0.2335,0.2347,0.2368,0.2491,0.2521,0.2613,0.2726,0.2775,0.2918,0.2962,0.3121,0.3179,0.3237,0.3239,0.3307,0.3211,0.3181,0.3113,0.3094,0.3081,0.3074,0.3345,0.3345,0.3345,0.3345,0,0.2057,0.2136,0.2161,0.228,0.2302,0.2313,0.2425,0.2464,0.2577,0.2643,0.2672,0.2846,0.2928,0.3057,0.3149,0.3181,0.3138,0.3187,0.3083,0.3039,0.2936,0.2934,0.2788,0.2699,0.3084,0.3081,0.3079,0,0.2004,0.2001,0.2078,0.2092,0.2142,0.2182,0.222,0.2359,0.2418,0.2565,0.259,0.2684,0.2779,0.2884,0.2949,0.3022,0.3,0.2946,0.2943,0.2928,0.2907,0.2796,0.2726,0.2865,0.2861,0.2858,0.2855,0,0.1917,0.1926,0.1964,0.198,0.2003,0.2044,0.2115,0.2137,0.231,0.2377,0.2496,0.2573,0.2654,0.2716,0.2769,0.2803,0.2828,0.2874,0.2912,0.2784,0.2617,0.2516,0.2851,0.2826,0.2829,0.2831,0.2833,0.2834,0.1851,0.1842,0.1882,0.189,0.1915,0.1952,0.197,0.2072,0.2158,0.2296,0.239,0.2487,0.2579,0.2652,0.2635,0.26,0.2573,0.2608,0.2621,0.2519,0.2392,0.2634,0.2533,0.2535,0.2536,0.2536,0.2537,0,0.1801,0.1804,0.1809,0.1835,0.1841,0.1877,0.1942,0.1977,0.2072,0.2195,0.2311,0.2427,0.2467,0.2503,0.2516,0.244,0.2319,0.24,0.2303,0.2256,0.2548,0.2502,0.2325,0.2325,0.2325,0.2325,0.2325,0.2325,0.1782,0.1765,0.1768,0.1769,0.1786,0.1796,0.1826,0.1886,0.1969,0.2081,0.2156,0.2239,0.2422,0.2549,0.2513,0.2428,0.228,0.2131,0.213,0.2461,0.2484,0.2507,0.2468,0.2286,0.2286,0.1761,0.1758,0.1755]},{"header":{"parameterUnit":"m.s-1","parameterCategory":2,"la1":30.2991,"la2":30.254,"lo1":-89.0895,"lo2":-89.0444,"dy":0.0017,"dx":0.0017,"nx":28,"ny":28,"refTime":"2023-10-14T21:00:00:Z","depth":"0","parameterNumber":3,"parameterNumberName":"V-component_of_CURRENTS"},"data":[0,0,0,0,0,0,0,0,0,0,0,0,0,0,0,0,0,0,0,0,0,0,0,0,0,0,0,0,0,0,0,0,0,0,0,0,0,0,0,0,0,0,0,0,0,0,0,0,0,0,0,0,0,0,0,0,0,0,-0.0212,-0.0213,0,-0.0292,-0.0292,-0.0293,-0.0327,-0.0327,-0.0327,-0.0328,-0.0357,-0.0357,-0.0358,0,0,0,0,0,0,0,0,0,0,0,0,0,-0.0141,-0.0141,-0.0212,-0.0213,-0.0214,-0.0292,-0.0292,-0.0293,-0.0327,-0.0327,-0.0328,-0.0328,-0.0357,-0.0357,-0.0358,0,0,0,0,0,0,0,0,0,0,0,0,0,-0.0187,-0.0141,-0.0211,-0.0244,-0.0248,-0.0291,-0.0292,-0.0293,-0.0327,-0.0327,-0.0328,-0.0328,-0.0356,-0.0357,-0.0358,-0.0356,0,0,-0.0361,-0.0361,0,0,0,0,0,0,0,0,-0.0184,-0.0189,-0.0238,-0.0242,-0.0246,-0.0303,-0.0278,-0.0313,-0.0327,-0.0292,-0.0328,-0.0328,-0.0337,-0.0339,-0.0348,-0.0357,-0.0359,-0.0361,-0.0361,-0.0362,-0.0362,0,0,0,0,0,0,0,-0.0181,-0.0186,-0.0239,-0.0239,-0.0244,-0.0273,-0.0278,-0.0285,-0.0307,-0.0295,-0.0299,-0.0315,-0.0338,-0.0347,-0.0349,-0.0359,-0.0361,-0.0361,-0.0362,-0.0362,-0.037,-0.037,0,0,0,0,0,0,-0.0176,-0.0183,-0.0237,-0.0242,-0.022,-0.0274,-0.028,-0.0281,-0.0309,-0.0315,-0.0314,-0.0316,-0.0346,-0.0348,-0.035,-0.0334,-0.0362,-0.0362,-0.0363,-0.037,-0.037,-0.037,0,0,0,0,0,0,-0.0174,-0.018,-0.0234,-0.0219,-0.0228,-0.0274,-0.0276,-0.0283,-0.0291,-0.0324,-0.0328,-0.0315,-0.0346,-0.0349,-0.0355,-0.0336,-0.0363,-0.0364,-0.0371,-0.037,-0.037,-0.0311,0,0,0,0,0,0,-0.0171,-0.0178,-0.0171,-0.0218,-0.0229,-0.0247,-0.0276,-0.0284,-0.0302,-0.0305,-0.0326,-0.033,-0.0347,-0.0354,-0.0356,-0.0338,-0.0364,-0.0371,-0.0371,-0.037,-0.0314,-0.0309,-0.0305,0,0,0,0,0,-0.0168,-0.0155,-0.0169,-0.0176,-0.0219,-0.0247,-0.0254,-0.0287,-0.0302,-0.0296,-0.0318,-0.0329,-0.0352,-0.0354,-0.0357,-0.0338,-0.0371,-0.0371,-0.037,-0.0316,-0.031,-0.0305,0,0,0,0,0,0,-0.0119,-0.0159,-0.0176,-0.0175,-0.0205,-0.0254,-0.0255,-0.0281,-0.0296,-0.0296,-0.0326,-0.033,-0.0329,-0.0344,-0.0346,-0.0341,-0.0363,-0.0363,-0.0321,-0.0316,-0.0311,-0.0281,-0.0365,0,0,0,0,0,-0.0106,-0.0106,-0.0152,-0.0151,-0.0162,-0.0207,-0.0222,-0.0246,-0.0272,-0.0279,-0.03,-0.0319,-0.0329,-0.033,-0.0344,-0.0337,-0.0354,-0.0329,-0.0324,-0.032,-0.0298,-0.0308,-0.0302,-0.0368,-0.0368,-0.0368,0,0,-0.0089,-0.0111,-0.0112,-0.0141,-0.0165,-0.0169,-0.0215,-0.0231,-0.0232,-0.0278,-0.0277,-0.0304,-0.0326,-0.0323,-0.0323,-0.033,-0.0316,-0.0319,-0.0316,-0.0296,-0.0307,-0.03,-0.0294,-0.0367,-0.0367,-0.0367,0,0,-0.0054,-0.0071,-0.0059,-0.0077,-0.0111,-0.0138,-0.014,-0.0185,-0.0197,-0.0207,-0.0241,-0.0251,-0.0274,-0.028,-0.0287,-0.0264,-0.0297,-0.0279,-0.0224,-0.0234,-0.0228,-0.0223,-0.0258,-0.0256,-0.0271,-0.0271,-0.0271,0,-0.003,-0.0021,-0.006,-0.0053,-0.0061,-0.0118,-0.0106,-0.0126,-0.0168,-0.0166,-0.0196,-0.0222,-0.0245,-0.0229,-0.0229,-0.0249,-0.0276,-0.0241,-0.0226,-0.0222,-0.0217,-0.0254,-0.0253,-0.0268,-0.0269,-0.0269,-0.0269,0,0.0011,0.002,0.0027,0.002,0.0006,0.0009,-0.0031,-0.0041,-0.0069,-0.0089,-0.0091,-0.0132,-0.0139,-0.0159,-0.0187,-0.0168,-0.0206,-0.0223,-0.0235,-0.0207,-0.0249,-0.0249,-0.0264,-0.0265,-0.0266,-0.0267,0,0,0.0074,0.006,0.0067,0.0076,0.0048,0.0043,0.0045,0.0039,0.0058,0.0011,0.0033,-0.0,-0.0025,-0.0034,-0.0076,-0.0092,-0.0102,-0.0144,-0.0146,-0.017,-0.0148,-0.0165,-0.0167,-0.0124,-0.0123,-0.0122,-0.0197,0,0.0125,0.0158,0.0134,0.0167,0.0182,0.0138,0.015,0.0136,0.0119,0.0125,0.0082,0.0083,0.0024,0.0017,-0.0003,-0.0075,-0.0096,-0.0081,-0.0178,-0.0181,-0.0191,-0.0164,-0.0156,-0.022,-0.0197,-0.0197,-0.0197,0,0.0184,0.0199,0.0241,0.0249,0.0253,0.0264,0.028,0.0282,0.0273,0.0261,0.0252,0.0208,0.0182,0.0121,0.0037,0.0044,-0.0037,-0.0103,-0.0108,-0.0135,-0.0195,-0.0241,-0.0222,-0.0348,-0.0198,-0.0198,-0.0198,0,0.0256,0.0277,0.0316,0.0319,0.0318,0.0335,0.0335,0.0335,0.0352,0.0351,0.0359,0.032,0.0298,0.0205,0.0068,0.0051,-0.0041,-0.0078,-0.0171,-0.0175,-0.0189,-0.0194,-0.0288,-0.0129,-0.0129,-0.0129,-0.0128,0,0.0325,0.0359,0.0357,0.0382,0.0433,0.0409,0.0466,0.0459,0.047,0.0508,0.0442,0.0455,0.0317,0.0238,0.0107,-0.0025,-0.0006,-0.0147,-0.0182,-0.0172,-0.0175,-0.0303,-0.0389,-0.0132,-0.0131,-0.013,-0.013,0,0.0392,0.0394,0.0437,0.0456,0.0468,0.0503,0.0531,0.0569,0.0573,0.0615,0.0613,0.0556,0.0463,0.0307,0.0152,0.0034,-0.0184,-0.0158,-0.0151,-0.0181,-0.0375,-0.0457,-0.0584,-0.0668,-0.0262,-0.0262,-0.0263,0,0.0421,0.0453,0.0492,0.0519,0.053,0.0577,0.061,0.0622,0.0664,0.0681,0.0707,0.0632,0.0596,0.0361,0.0143,-0.0074,-0.0213,-0.0218,-0.0234,-0.0368,-0.0487,-0.054,-0.0606,-0.025,-0.0251,-0.0251,-0.0251,0,0.0472,0.0487,0.052,0.0581,0.0623,0.0673,0.0725,0.0777,0.0799,0.0841,0.0875,0.0846,0.0625,0.042,0.0122,-0.0032,-0.0313,-0.0231,-0.0364,-0.0469,-0.0539,-0.0641,-0.0244,-0.0254,-0.0254,-0.0254,-0.0254,-0.0253,0.05,0.0531,0.0575,0.0635,0.0684,0.0761,0.0829,0.0893,0.0978,0.1059,0.1013,0.1007,0.0676,0.0284,0.0056,-0.0336,-0.0353,-0.0452,-0.054,-0.0581,-0.0654,-0.0268,-0.0317,-0.0317,-0.0317,-0.0317,-0.0317,0,0.0522,0.0563,0.0619,0.0693,0.0758,0.0782,0.0896,0.0982,0.1106,0.1164,0.1203,0.1019,0.0636,0.0236,-0.0303,-0.0584,-0.07,-0.0746,-0.0823,-0.0876,-0.0522,-0.0512,-0.0611,-0.0611,-0.061,-0.061,-0.061,-0.061,0.0532,0.0591,0.0627,0.074,0.0798,0.0913,0.0993,0.1128,0.1212,0.1302,0.1284,0.122,0.0885,-0.0063,-0.0724,-0.0886,-0.11,-0.1139,-0.1269,-0.1026,-0.1005,-0.0985,-0.0994,-0.1192,-0.1193,-0.1574,-0.1578,-0.1581]}],[{"header":{"parameterUnit":"m.s-1","parameterCategory":2,"la1":30.2991,"la2":30.254,"lo1":-89.0895,"lo2":-89.0444,"dy":0.0017,"dx":0.0017,"nx":28,"ny":28,"refTime":"2023-10-14T21:00:00:Z","depth":"2","parameterNumber":2,"parameterNumberName":"U-component_of_CURRENTS"},"data":[0,0,0,0,0,0,0,0,0,0,0,0,0,0,0,0,0,0,0,0,0,0,0,0,0,0,0,0,0,0,0,0,0,0,0,0,0,0,0,0,0,0,0,0,0,0,0,0,0,0,0,0,0,0,0,0,0,0,0.2489,0.249,0,0.2499,0.2498,0.2498,0.246,0.246,0.246,0.2459,0.2426,0.2425,0.2424,0,0,0,0,0,0,0,0,0,0,0,0,0,0.2413,0.2414,0.2489,0.249,0.2491,0.2499,0.2498,0.2497,0.246,0.246,0.246,0.2459,0.2426,0.2425,0.2424,0,0,0,0,0,0,0,0,0,0,0,0,0,0.2428,0.2415,0.2489,0.248,0.248,0.2499,0.2498,0.2497,0.246,0.246,0.246,0.2459,0.2426,0.2425,0.2424,0.2426,0,0,0.2421,0.2421,0,0,0,0,0,0,0,0,0.2428,0.243,0.248,0.2481,0.2481,0.2486,0.246,0.2475,0.246,0.2458,0.2459,0.2459,0.2448,0.2445,0.2436,0.2425,0.2423,0.2421,0.242,0.242,0.242,0,0,0,0,0,0,0,0.2427,0.2429,0.2483,0.2481,0.2482,0.2468,0.2469,0.2462,0.2447,0.2458,0.2458,0.2474,0.2446,0.2437,0.2435,0.2423,0.2421,0.242,0.242,0.2419,0.2518,0.2521,0,0,0,0,0,0,0.2446,0.2429,0.2483,0.2485,0.2463,0.247,0.2471,0.2477,0.2448,0.2447,0.2474,0.2472,0.2438,0.2436,0.2433,0.2504,0.242,0.2419,0.2419,0.2515,0.2519,0.2522,0,0,0,0,0,0,0.2444,0.245,0.2483,0.2464,0.2469,0.2473,0.248,0.2478,0.2489,0.2463,0.2458,0.2491,0.2438,0.2435,0.2443,0.25,0.2419,0.2418,0.2511,0.2516,0.252,0.2602,0,0,0,0,0,0,0.2441,0.2449,0.2457,0.2466,0.2471,0.2517,0.2481,0.2479,0.2502,0.25,0.2475,0.247,0.2437,0.2445,0.2442,0.2497,0.2417,0.2507,0.2513,0.2519,0.2595,0.2609,0.2621,0,0,0,0,0,0.2438,0.2452,0.2457,0.2464,0.2482,0.252,0.2521,0.2515,0.2504,0.252,0.2498,0.2472,0.2482,0.2445,0.2441,0.2498,0.2504,0.2511,0.2518,0.2589,0.2606,0.262,0,0,0,0,0,0,0.242,0.2451,0.2456,0.2477,0.2511,0.2518,0.2532,0.2535,0.2529,0.252,0.2488,0.2483,0.2525,0.2503,0.2463,0.2551,0.25,0.2507,0.2556,0.2571,0.2583,0.259,0.2416,0,0,0,0,0,0.2425,0.2442,0.2478,0.2498,0.2518,0.253,0.2544,0.2546,0.2549,0.2546,0.2533,0.253,0.2551,0.255,0.2558,0.2584,0.2567,0.263,0.2643,0.2654,0.2662,0.2686,0.27,0.2546,0.2546,0.2545,0,0,0.2422,0.2445,0.2453,0.2496,0.2514,0.2548,0.2535,0.2568,0.259,0.2543,0.2562,0.2574,0.2572,0.261,0.2629,0.2594,0.2691,0.2663,0.2671,0.2674,0.2695,0.2709,0.2722,0.2551,0.255,0.2549,0,0,0.243,0.2452,0.2471,0.2506,0.2554,0.2569,0.2591,0.2616,0.2622,0.2646,0.2639,0.2684,0.2683,0.2708,0.2717,0.281,0.2765,0.2825,0.2879,0.2903,0.2915,0.2925,0.2918,0.2927,0.2821,0.2821,0.2821,0,0.2422,0.2449,0.2485,0.2522,0.2549,0.2587,0.2617,0.264,0.2663,0.2681,0.2664,0.2736,0.2736,0.2812,0.2845,0.2839,0.2825,0.2812,0.2916,0.2926,0.2935,0.2925,0.2934,0.2826,0.2825,0.2825,0.2824,0,0.2445,0.2473,0.2495,0.2548,0.2591,0.2622,0.2675,0.271,0.2726,0.2751,0.283,0.2846,0.2889,0.292,0.2899,0.2993,0.2953,0.2933,0.2867,0.2955,0.294,0.2947,0.2833,0.2831,0.2829,0.2828,0,0,0.2371,0.2485,0.2483,0.2508,0.26,0.2623,0.2697,0.276,0.2789,0.2853,0.2898,0.2987,0.3014,0.303,0.3048,0.3076,0.3131,0.303,0.3029,0.3004,0.3156,0.3019,0.3013,0.3116,0.3118,0.312,0.3116,0,0.236,0.2418,0.2489,0.2537,0.2563,0.2646,0.2702,0.2774,0.2824,0.2876,0.2963,0.3005,0.3052,0.3062,0.3124,0.3125,0.3155,0.3132,0.3091,0.3089,0.2941,0.3019,0.2796,0.2764,0.3123,0.3124,0.3125,0,0.2317,0.2369,0.2415,0.251,0.253,0.2571,0.2655,0.2716,0.2834,0.2876,0.2988,0.3031,0.3139,0.3126,0.3229,0.3205,0.3197,0.3194,0.3193,0.304,0.2966,0.2739,0.2764,0.3137,0.3136,0.3135,0.3134,0,0.2189,0.2291,0.232,0.2354,0.2485,0.2515,0.2581,0.27,0.2742,0.2865,0.2888,0.3052,0.3079,0.3158,0.3196,0.32,0.3253,0.3249,0.3128,0.3117,0.2907,0.2873,0.3301,0.3301,0.3301,0.3301,0.3301,0,0.2118,0.213,0.2253,0.2266,0.2292,0.2418,0.2454,0.255,0.2668,0.272,0.2868,0.2912,0.3078,0.3134,0.3192,0.3184,0.3259,0.315,0.3116,0.2929,0.2898,0.3205,0.3194,0.3301,0.3301,0.3301,0.3301,0,0.1977,0.2057,0.2083,0.2204,0.2227,0.2241,0.2356,0.2398,0.2516,0.2583,0.2613,0.2789,0.2868,0.3,0.309,0.3119,0.3148,0.3112,0.2869,0.2807,0.3,0.2994,0.2999,0.2994,0.299,0.2987,0.2984,0,0.1929,0.1926,0.2003,0.2016,0.2068,0.211,0.215,0.2293,0.2351,0.2498,0.2522,0.2611,0.2696,0.2792,0.2827,0.2888,0.3008,0.2698,0.268,0.3007,0.2974,0.2974,0.2974,0.2438,0.2431,0.2426,0.2421,0,0.1846,0.1856,0.1894,0.1908,0.1931,0.1971,0.2043,0.2062,0.2237,0.2301,0.2408,0.2473,0.2517,0.2489,0.2523,0.2539,0.2686,0.2578,0.2988,0.2541,0.2476,0.2445,0.2463,0.237,0.2375,0.2379,0.2381,0.2384,0.1784,0.1776,0.1814,0.1822,0.1846,0.1879,0.1895,0.1986,0.2065,0.2161,0.2247,0.2263,0.2279,0.222,0.2173,0.2135,0.2329,0.2287,0.2307,0.2332,0.226,0.219,0.2016,0.2018,0.2021,0.2023,0.2025,0,0.1733,0.1739,0.1744,0.1767,0.1765,0.1809,0.1866,0.1863,0.1936,0.1999,0.2064,0.1873,0.1834,0.1845,0.1697,0.1705,0.1715,0.166,0.1672,0.1723,0.1768,0.1669,0.1268,0.1265,0.1263,0.1261,0,0,0.1713,0.1694,0.1695,0.1689,0.1711,0.171,0.1735,0.1726,0.1748,0.1713,0.1689,0.1783,0.1813,0.1528,0.1486,0.1357,0.1539,0.1304,0.1914,0.1981,0.2024,0.2129,0.2033,0,0,0,0,0]},{"header":{"parameterUnit":"m.s-1","parameterCategory":2,"la1":30.2991,"la2":30.254,"lo1":-89.0895,"lo2":-89.0444,"dy":0.0017,"dx":0.0017,"nx":28,"ny":28,"refTime":"2023-10-14T21:00:00:Z","depth":"2","parameterNumber":3,"parameterNumberName":"V-component_of_CURRENTS"},"data":[0,0,0,0,0,0,0,0,0,0,0,0,0,0,0,0,0,0,0,0,0,0,0,0,0,0,0,0,0,0,0,0,0,0,0,0,0,0,0,0,0,0,0,0,0,0,0,0,0,0,0,0,0,0,0,0,0,0,-0.0125,-0.0126,0,-0.02,-0.02,-0.0201,-0.0233,-0.0234,-0.0234,-0.0234,-0.027,-0.0271,-0.0272,0,0,0,0,0,0,0,0,0,0,0,0,0,-0.0055,-0.0055,-0.0125,-0.0126,-0.0127,-0.02,-0.02,-0.0201,-0.0233,-0.0234,-0.0234,-0.0234,-0.027,-0.0271,-0.0272,0,0,0,0,0,0,0,0,0,0,0,0,0,-0.0099,-0.0056,-0.0125,-0.0156,-0.0159,-0.02,-0.02,-0.0201,-0.0233,-0.0234,-0.0234,-0.0235,-0.027,-0.0271,-0.0272,-0.0269,0,0,-0.0275,-0.0275,0,0,0,0,0,0,0,0,-0.0096,-0.0101,-0.015,-0.0154,-0.0158,-0.0212,-0.0189,-0.0223,-0.0233,-0.0201,-0.0234,-0.0235,-0.0249,-0.0252,-0.026,-0.0271,-0.0273,-0.0275,-0.0276,-0.0276,-0.0276,0,0,0,0,0,0,0,-0.0093,-0.0098,-0.015,-0.0151,-0.0156,-0.0182,-0.0187,-0.0196,-0.0218,-0.0204,-0.0207,-0.0222,-0.0251,-0.0259,-0.0261,-0.0273,-0.0275,-0.0276,-0.0276,-0.0277,-0.0295,-0.0295,0,0,0,0,0,0,-0.009,-0.0095,-0.0148,-0.0153,-0.0133,-0.0183,-0.0189,-0.019,-0.0218,-0.0225,-0.0222,-0.0224,-0.0257,-0.0259,-0.0262,-0.0252,-0.0276,-0.0277,-0.0278,-0.0295,-0.0295,-0.0295,0,0,0,0,0,0,-0.0088,-0.0093,-0.0145,-0.013,-0.0139,-0.0184,-0.0185,-0.0192,-0.0201,-0.0234,-0.0238,-0.0225,-0.0257,-0.0261,-0.0271,-0.0254,-0.0277,-0.0278,-0.0295,-0.0295,-0.0295,-0.0239,0,0,0,0,0,0,-0.0085,-0.0091,-0.0086,-0.0129,-0.014,-0.0159,-0.0185,-0.0193,-0.0212,-0.0215,-0.0238,-0.0242,-0.0258,-0.027,-0.0272,-0.0256,-0.0279,-0.0295,-0.0295,-0.0295,-0.0241,-0.0236,-0.0233,0,0,0,0,0,-0.0082,-0.007,-0.0084,-0.0091,-0.0131,-0.0159,-0.0165,-0.0197,-0.0212,-0.0208,-0.0231,-0.0241,-0.027,-0.027,-0.0273,-0.0257,-0.0296,-0.0295,-0.0295,-0.0242,-0.0237,-0.0233,0,0,0,0,0,0,-0.0035,-0.0074,-0.009,-0.009,-0.012,-0.0166,-0.0167,-0.0193,-0.0209,-0.021,-0.0239,-0.0244,-0.0249,-0.0263,-0.0263,-0.0264,-0.0284,-0.0284,-0.0243,-0.0239,-0.0235,-0.0203,-0.028,0,0,0,0,0,-0.0024,-0.0024,-0.0069,-0.0068,-0.008,-0.0123,-0.0138,-0.016,-0.0187,-0.0195,-0.0217,-0.0237,-0.0249,-0.0253,-0.0268,-0.0265,-0.028,-0.0258,-0.0254,-0.0251,-0.0228,-0.0238,-0.0233,-0.0294,-0.0294,-0.0294,0,0,-0.0009,-0.0029,-0.0031,-0.0059,-0.0082,-0.0087,-0.0131,-0.0148,-0.0149,-0.0195,-0.0196,-0.0225,-0.0248,-0.0248,-0.025,-0.0257,-0.0248,-0.025,-0.0247,-0.0226,-0.0237,-0.0231,-0.0226,-0.0294,-0.0294,-0.0294,0,0,0.0025,0.0008,0.0019,0.0001,-0.0033,-0.0059,-0.0062,-0.0105,-0.0118,-0.013,-0.0164,-0.0177,-0.0203,-0.021,-0.0218,-0.02,-0.0231,-0.0216,-0.0163,-0.0173,-0.0168,-0.0163,-0.0198,-0.0196,-0.0209,-0.0209,-0.0209,0,0.0047,0.0056,0.0017,0.0024,0.0016,-0.0041,-0.0029,-0.0049,-0.0091,-0.009,-0.012,-0.0151,-0.0176,-0.0164,-0.0165,-0.0186,-0.0212,-0.0177,-0.0166,-0.0161,-0.0157,-0.0194,-0.0193,-0.0206,-0.0206,-0.0207,-0.0207,0,0.0087,0.0095,0.0101,0.0094,0.008,0.0082,0.0043,0.0032,0.0002,-0.0017,-0.0023,-0.0065,-0.0074,-0.0096,-0.0126,-0.011,-0.0147,-0.0163,-0.0172,-0.0147,-0.0189,-0.0189,-0.0202,-0.0203,-0.0204,-0.0204,0,0,0.0147,0.0134,0.014,0.0149,0.012,0.0115,0.0116,0.0108,0.0126,0.0078,0.0098,0.006,0.0036,0.0025,-0.0018,-0.0035,-0.0047,-0.0086,-0.0088,-0.0111,-0.0094,-0.0105,-0.0107,-0.0069,-0.0068,-0.0067,-0.0142,0,0.0197,0.0229,0.0205,0.0237,0.0251,0.0207,0.0218,0.0202,0.0185,0.0189,0.0144,0.0143,0.0083,0.0075,0.0053,-0.0019,-0.0042,-0.0027,-0.0122,-0.0125,-0.0128,-0.0104,-0.0072,-0.0134,-0.0142,-0.0142,-0.0142,0,0.0253,0.0269,0.0309,0.0317,0.0321,0.0331,0.0345,0.0346,0.0336,0.0323,0.0312,0.0267,0.0239,0.0177,0.0091,0.0099,0.0017,-0.0049,-0.0054,-0.0075,-0.0134,-0.0157,-0.0134,-0.0143,-0.0143,-0.0143,-0.0143,0,0.0322,0.0343,0.038,0.0383,0.0383,0.0399,0.0399,0.0398,0.0413,0.0412,0.042,0.0378,0.0354,0.026,0.0123,0.0105,0.0013,-0.0025,-0.0113,-0.0117,-0.011,-0.0113,-0.0078,-0.0077,-0.0077,-0.0077,-0.0077,0,0.0388,0.042,0.042,0.0444,0.0494,0.0471,0.0526,0.0519,0.053,0.0567,0.0501,0.0512,0.0373,0.0294,0.0162,0.0031,0.0048,-0.009,-0.0123,-0.0094,-0.0095,-0.0113,-0.0116,-0.008,-0.0079,-0.0079,-0.0078,0,0.0451,0.0453,0.0496,0.0515,0.0527,0.0562,0.059,0.0628,0.0632,0.0674,0.0671,0.0613,0.052,0.0365,0.0208,0.0092,-0.0042,-0.0099,-0.0067,-0.0094,-0.0183,-0.0183,-0.0196,-0.0196,-0.0197,-0.0197,-0.0198,0,0.0479,0.0511,0.0549,0.0575,0.0587,0.0633,0.0666,0.0679,0.0722,0.0738,0.0765,0.0689,0.0652,0.0419,0.0209,-0.0004,-0.0043,-0.0126,-0.0139,-0.0156,-0.0189,-0.0187,-0.0186,-0.0129,-0.0129,-0.0129,-0.0129,0,0.053,0.0544,0.0577,0.0637,0.0678,0.0729,0.0783,0.0835,0.0858,0.0898,0.0931,0.09,0.0685,0.0492,0.0203,0.0058,-0.0086,-0.013,-0.014,-0.0097,-0.0097,-0.0128,-0.0128,-0.0127,-0.0128,-0.0128,-0.0128,-0.0128,0.0558,0.0589,0.0632,0.0691,0.074,0.0819,0.0889,0.0954,0.104,0.111,0.1061,0.1023,0.0782,0.0432,0.0181,-0.0078,-0.0072,-0.0169,-0.0168,-0.0167,-0.0138,-0.0139,-0.0173,-0.0174,-0.0174,-0.0174,-0.0175,0,0.0583,0.0622,0.0678,0.0752,0.0821,0.0841,0.0958,0.105,0.1174,0.1193,0.122,0.1004,0.0766,0.0484,0.0108,-0.0124,-0.0143,-0.0198,-0.0169,-0.0168,-0.0168,-0.0138,-0.0175,-0.0175,-0.0176,-0.0177,0,0,0.0595,0.0655,0.069,0.0807,0.0865,0.0985,0.1067,0.1212,0.1275,0.1322,0.128,0.1191,0.084,0.0568,0.0258,0.0041,-0.0013,-0.0003,0.0025,0.0097,0.01,-0.0121,-0.007,0,0,0,0,0]}],[{"header":{"parameterUnit":"m.s-1","parameterCategory":2,"la1":30.2991,"la2":30.254,"lo1":-89.0895,"lo2":-89.0444,"dy":0.0017,"dx":0.0017,"nx":28,"ny":28,"refTime":"2023-10-14T21:00:00:Z","depth":"4","parameterNumber":2,"parameterNumberName":"U-component_of_CURRENTS"},"data":[0,0,0,0,0,0,0,0,0,0,0,0,0,0,0,0,0,0,0,0,0,0,0,0,0,0,0,0,0,0,0,0,0,0,0,0,0,0,0,0,0,0,0,0,0,0,0,0,0,0,0,0,0,0,0,0,0,0,0.1115,0.1114,0,0.1126,0.1127,0.1129,0.121,0.1211,0.1211,0.1212,0.1141,0.1139,0.1136,0,0,0,0,0,0,0,0,0,0,0,0,0,0.1152,0.1152,0.1115,0.1113,0.1112,0.1126,0.1127,0.1129,0.121,0.1211,0.1211,0.1212,0.1141,0.1139,0.1136,0,0,0,0,0,0,0,0,0,0,0,0,0,0.1163,0.1152,0.1115,0.1141,0.1143,0.1125,0.1128,0.113,0.121,0.1211,0.1211,0.1212,0.1142,0.1139,0.1136,0.1102,0,0,0.1125,0.1124,0,0,0,0,0,0,0,0,0.1162,0.1164,0.1139,0.1139,0.114,0.1152,0.1113,0.111,0.121,0.1203,0.1212,0.1212,0.1125,0.1123,0.115,0.1099,0.1096,0.1125,0.1123,0.1121,0.1121,0,0,0,0,0,0,0,0.1162,0.1163,0.1137,0.1137,0.1138,0.1147,0.1151,0.1115,0.1172,0.1203,0.1205,0.1178,0.1128,0.1153,0.1148,0.1095,0.1125,0.1122,0.112,0.1119,0.1159,0.1162,0,0,0,0,0,0,0.1125,0.1163,0.1136,0.1135,0.1134,0.1144,0.115,0.1162,0.1174,0.1173,0.1178,0.1182,0.1159,0.1152,0.1145,0.127,0.1121,0.1118,0.1116,0.1156,0.116,0.1163,0,0,0,0,0,0,0.1127,0.1125,0.1135,0.1133,0.1133,0.1141,0.1155,0.1161,0.1227,0.1153,0.1153,0.1239,0.1159,0.115,0.1201,0.1261,0.1117,0.1114,0.1152,0.1157,0.1162,0.1412,0,0,0,0,0,0,0.1129,0.1126,0.1148,0.1132,0.1131,0.1135,0.1153,0.1161,0.1198,0.1206,0.1203,0.1196,0.1159,0.1207,0.1198,0.1254,0.1111,0.1148,0.1155,0.116,0.14,0.1425,0.1446,0,0,0,0,0,0.1131,0.1141,0.1151,0.1147,0.1154,0.1134,0.1138,0.1156,0.1201,0.1224,0.1276,0.1198,0.1236,0.1209,0.1196,0.1252,0.1146,0.1153,0.116,0.139,0.142,0.1446,0,0,0,0,0,0,0.1165,0.1148,0.1159,0.1165,0.1153,0.1141,0.1158,0.1184,0.1248,0.1278,0.1251,0.1248,0.1327,0.1245,0.1216,0.1279,0.117,0.1175,0.1349,0.1377,0.14,0.1425,0.1108,0,0,0,0,0,0.1178,0.1196,0.1165,0.1176,0.1172,0.1185,0.1191,0.1205,0.1233,0.1266,0.1275,0.1289,0.1337,0.1326,0.1336,0.1352,0.1299,0.1373,0.1396,0.1416,0.1429,0.1519,0.1553,0.1186,0.1186,0.1186,0,0,0.1196,0.1182,0.1197,0.1185,0.1191,0.1213,0.1198,0.1213,0.126,0.124,0.134,0.1385,0.1371,0.1439,0.1456,0.1376,0.1471,0.1425,0.1444,0.1445,0.1531,0.1567,0.1599,0.1191,0.119,0.1189,0,0,0.1218,0.123,0.1253,0.1252,0.1241,0.1249,0.1263,0.1282,0.1322,0.1402,0.1445,0.155,0.1543,0.1594,0.1609,0.1749,0.1624,0.1717,0.1821,0.1911,0.1943,0.197,0.1858,0.1874,0.1692,0.1692,0.1693,0,0.1239,0.126,0.1252,0.1268,0.1258,0.1279,0.1293,0.1349,0.1396,0.1413,0.145,0.1622,0.1633,0.176,0.1842,0.1807,0.1765,0.1727,0.1946,0.1973,0.1997,0.1876,0.1891,0.1705,0.1704,0.1702,0.1701,0,0.1269,0.1301,0.1308,0.1349,0.1346,0.1356,0.1384,0.1472,0.1535,0.1534,0.1688,0.1802,0.1893,0.1927,0.1943,0.2114,0.1993,0.2004,0.1887,0.2051,0.1909,0.192,0.1724,0.1719,0.1715,0.1712,0,0,0.1271,0.1319,0.1332,0.1342,0.1377,0.1367,0.1491,0.1525,0.161,0.1715,0.1819,0.2011,0.2073,0.2104,0.2172,0.2265,0.241,0.2218,0.2217,0.212,0.247,0.2219,0.2203,0.2482,0.2488,0.2493,0.2269,0,0.1294,0.1329,0.1346,0.1394,0.1401,0.1465,0.1548,0.1596,0.1683,0.1798,0.1928,0.2038,0.2128,0.2233,0.2375,0.242,0.2465,0.2459,0.2311,0.2302,0.2079,0.2221,0.2511,0.2276,0.2278,0.228,0.2281,0,0.1306,0.1323,0.1359,0.1389,0.1397,0.1451,0.1576,0.1652,0.1796,0.1859,0.2042,0.2112,0.2313,0.2385,0.2553,0.2547,0.2542,0.2551,0.2542,0.2238,0.2078,0.2097,0.2298,0.2297,0.2296,0.2295,0.2294,0,0.1265,0.1318,0.1336,0.1349,0.1416,0.1478,0.1537,0.1663,0.1711,0.1913,0.1965,0.2193,0.2302,0.245,0.2493,0.2546,0.2584,0.2631,0.2361,0.2332,0.2509,0.2483,0.2737,0.2737,0.2738,0.2738,0.2739,0,0.1243,0.126,0.1336,0.1349,0.1391,0.1437,0.1526,0.1649,0.1787,0.1811,0.1999,0.2108,0.2347,0.2388,0.247,0.2402,0.2552,0.2387,0.2311,0.2597,0.2585,0.2508,0.2484,0.273,0.2732,0.2733,0.2735,0,0.1186,0.1243,0.1265,0.1346,0.1375,0.1409,0.1493,0.1564,0.1691,0.1789,0.1837,0.2006,0.2069,0.2159,0.2287,0.2272,0.2278,0.2189,0.233,0.2262,0.1953,0.1945,0.1907,0.1898,0.189,0.1883,0.1877,0,0.1154,0.1171,0.1254,0.1278,0.1321,0.1382,0.143,0.1541,0.1594,0.1717,0.174,0.18,0.1904,0.1819,0.1977,0.1965,0.1985,0.1888,0.2124,0.1964,0.1894,0.1899,0.1901,0.1865,0.1863,0.186,0.1858,0,0.109,0.1141,0.1166,0.1225,0.1273,0.1296,0.1363,0.1369,0.1484,0.1591,0.1611,0.1632,0.1624,0.1715,0.1624,0.168,0.1946,0.1806,0.1828,0.205,0.1912,0.1851,0.1863,0.183,0.1834,0.1837,0.1839,0,0.1052,0.1056,0.1115,0.1145,0.1193,0.119,0.1234,0.1261,0.1303,0.1433,0.1434,0.1515,0.1614,0.1552,0.1538,0.1494,0.1554,0.1557,0.1593,0.1625,0.1651,0.1442,0.1163,0,0,0,0,0,0.1007,0.1003,0.1026,0.104,0.1074,0.1107,0.1174,0.122,0.1318,0.1289,0.1354,0.136,0.1338,0.1389,0.13,0.1416,0.1543,0.1302,0.1563,0.1675,0.1708,0.1773,0,0,0,0,0,0,0.098,0.1,0.0996,0.0943,0.0934,0.0954,0.0998,0.1065,0.1058,0.1174,0.1181,0.1261,0.1271,0.1372,0.1273,0.1276,0.1405,0.1348,0.1343,0.1657,0.1686,0.1712,0.1791,0,0,0,0,0]},{"header":{"parameterUnit":"m.s-1","parameterCategory":2,"la1":30.2991,"la2":30.254,"lo1":-89.0895,"lo2":-89.0444,"dy":0.0017,"dx":0.0017,"nx":28,"ny":28,"refTime":"2023-10-14T21:00:00:Z","depth":"4","parameterNumber":3,"parameterNumberName":"V-component_of_CURRENTS"},"data":[0,0,0,0,0,0,0,0,0,0,0,0,0,0,0,0,0,0,0,0,0,0,0,0,0,0,0,0,0,0,0,0,0,0,0,0,0,0,0,0,0,0,0,0,0,0,0,0,0,0,0,0,0,0,0,0,0,0,0.0081,0.0081,0,0.005,0.005,0.0049,0.003,0.0031,0.0031,0.0031,0.0064,0.0065,0.0066,0,0,0,0,0,0,0,0,0,0,0,0,0,0.0088,0.0088,0.0081,0.0081,0.0081,0.0051,0.005,0.0049,0.003,0.0031,0.0031,0.0031,0.0064,0.0065,0.0066,0,0,0,0,0,0,0,0,0,0,0,0,0,0.0071,0.0088,0.0081,0.0071,0.007,0.0051,0.005,0.0049,0.003,0.0031,0.0031,0.0031,0.0064,0.0065,0.0066,0.0066,0,0,0.0069,0.0069,0,0,0,0,0,0,0,0,0.0072,0.0071,0.0072,0.0071,0.007,0.0047,0.0065,0.0059,0.003,0.0042,0.0031,0.0031,0.0067,0.0067,0.0055,0.0068,0.0069,0.0069,0.007,0.007,0.007,0,0,0,0,0,0,0,0.0073,0.0072,0.0066,0.0072,0.0071,0.0055,0.0053,0.0063,0.0052,0.0041,0.004,0.0042,0.0066,0.0054,0.0056,0.007,0.0069,0.007,0.0071,0.0071,0.0142,0.0143,0,0,0,0,0,0,0.0085,0.0073,0.0067,0.0065,0.0076,0.0055,0.0053,0.0052,0.005,0.005,0.0042,0.0041,0.0052,0.0055,0.0057,0.0068,0.007,0.0071,0.0072,0.014,0.0142,0.0143,0,0,0,0,0,0,0.0086,0.0085,0.0068,0.0071,0.0068,0.0055,0.0054,0.0051,0.0044,0.005,0.0051,0.0039,0.0053,0.0056,0.0051,0.0069,0.0072,0.0073,0.0139,0.0141,0.0143,0.0083,0,0,0,0,0,0,0.0086,0.0085,0.0089,0.0072,0.0069,0.0065,0.0054,0.005,0.0046,0.0045,0.0049,0.0051,0.0053,0.0049,0.0052,0.007,0.0073,0.0137,0.014,0.0142,0.0083,0.0082,0.0081,0,0,0,0,0,0.0086,0.0092,0.0089,0.0089,0.0074,0.0065,0.0062,0.0051,0.0046,0.0045,0.0031,0.0052,0.0068,0.0049,0.0052,0.0072,0.0136,0.0139,0.0142,0.0083,0.0082,0.0081,0,0,0,0,0,0,0.01,0.009,0.0087,0.0091,0.0083,0.0064,0.0064,0.0054,0.0041,0.0041,0.004,0.0041,0.0046,0.0074,0.0053,0.0107,0.0118,0.0121,0.0073,0.0072,0.0071,0.0089,0.0074,0,0,0,0,0,0.0105,0.0107,0.0095,0.01,0.0096,0.0079,0.0075,0.0068,0.0054,0.0048,0.0046,0.0058,0.0061,0.0075,0.0082,0.0101,0.0098,0.013,0.0129,0.0127,0.0149,0.0122,0.012,0.0152,0.0152,0.0152,0,0,0.0112,0.0109,0.011,0.0103,0.0095,0.0092,0.0077,0.0073,0.0073,0.0057,0.0052,0.0042,0.0062,0.007,0.0082,0.0096,0.0115,0.0131,0.0129,0.0152,0.0125,0.0121,0.0118,0.0154,0.0154,0.0154,0,0,0.0131,0.0124,0.0132,0.0128,0.0122,0.0106,0.0107,0.0088,0.0082,0.007,0.0059,0.0052,0.0069,0.0075,0.0084,0.0094,0.0098,0.0118,0.0138,0.011,0.0106,0.0102,0.0071,0.0065,0.0132,0.0132,0.0132,0,0.0143,0.0152,0.0133,0.0141,0.0141,0.0114,0.0121,0.0108,0.0089,0.0092,0.0074,0.0076,0.0074,0.0091,0.0087,0.009,0.0073,0.0125,0.0103,0.01,0.0098,0.0067,0.0061,0.013,0.013,0.013,0.0131,0,0.0167,0.0175,0.018,0.0178,0.0169,0.0173,0.0152,0.0148,0.013,0.0119,0.0118,0.0092,0.011,0.0102,0.009,0.0094,0.0084,0.0083,0.0092,0.009,0.0058,0.0053,0.0126,0.0127,0.0128,0.0128,0,0,0.0199,0.0197,0.0203,0.021,0.0191,0.0188,0.0186,0.0181,0.0201,0.0164,0.0178,0.0151,0.0143,0.0156,0.0142,0.0111,0.0048,0.0093,0.0092,0.0038,-0.0022,-0.0007,-0.0011,0.0029,0.0029,0.0028,-0.0048,0,0.0229,0.0252,0.0237,0.0254,0.026,0.0238,0.0244,0.0237,0.0227,0.0232,0.02,0.0204,0.0166,0.017,0.0132,0.0079,0.0039,0.007,0.0012,0.0011,0.0004,-0.0014,0.0027,-0.0051,-0.0052,-0.0053,-0.0054,0,0.0263,0.0275,0.0298,0.0304,0.0305,0.0313,0.0325,0.0329,0.0329,0.0325,0.0317,0.0289,0.0256,0.0212,0.012,0.0139,0.0064,0.0003,-0.0001,0.004,0.0019,-0.0038,-0.0063,-0.0062,-0.0061,-0.0061,-0.006,0,0.0303,0.0317,0.0338,0.0341,0.0342,0.0359,0.0361,0.0368,0.0385,0.0391,0.0398,0.0358,0.0339,0.0243,0.0132,0.012,0.0012,-0.0015,-0.0077,-0.0077,-0.0045,-0.004,-0.0094,-0.0094,-0.0094,-0.0094,-0.0094,0,0.034,0.0363,0.0368,0.0387,0.0425,0.0408,0.0457,0.0463,0.0477,0.0505,0.0459,0.0463,0.0341,0.0265,0.0152,0.0037,0.0033,-0.007,-0.0092,-0.0069,-0.0066,-0.0051,-0.0045,-0.0097,-0.0096,-0.0095,-0.0095,0,0.0382,0.0386,0.0417,0.0435,0.0448,0.0478,0.051,0.0547,0.0557,0.059,0.0588,0.0534,0.044,0.0313,0.0159,0.0076,-0.0045,-0.0091,-0.0051,-0.007,-0.0127,-0.0123,-0.0169,-0.0169,-0.0169,-0.0169,-0.0169,0,0.0401,0.0424,0.046,0.0486,0.0501,0.0544,0.058,0.0595,0.0631,0.0632,0.0648,0.0569,0.0517,0.0327,0.0183,-0.0014,-0.0051,-0.0112,-0.0131,-0.0117,-0.0134,-0.0129,-0.0125,-0.0169,-0.0169,-0.0169,-0.0169,0,0.0438,0.0456,0.0482,0.054,0.0584,0.063,0.0679,0.0707,0.0726,0.0723,0.0705,0.0602,0.0498,0.0339,0.0195,0.0046,-0.0066,-0.0113,-0.0115,-0.0133,-0.0117,-0.0133,-0.0129,-0.0169,-0.0169,-0.0169,-0.0169,0,0.0466,0.0491,0.0533,0.0582,0.064,0.0702,0.0722,0.0752,0.0778,0.0769,0.0759,0.0639,0.0565,0.0369,0.0234,0.0101,0.0047,-0.0005,-0.0014,-0.0016,0.0051,0.0095,0.0095,0,0,0,0,0,0.0484,0.0517,0.0567,0.0626,0.0686,0.0729,0.0781,0.0795,0.0807,0.0803,0.0783,0.0684,0.0487,0.0403,0.027,0.0214,0.0018,0.0053,-0.0048,-0.0169,-0.0169,-0.0114,0,0,0,0,0,0,0.0496,0.0547,0.057,0.0656,0.0708,0.0785,0.0826,0.0835,0.0832,0.0816,0.0717,0.0654,0.0464,0.0569,0.0272,0.0229,0.0146,-0.0042,-0.0045,-0.0169,-0.0169,-0.0169,-0.0113,0,0,0,0,0]}]]